TimeCDT,TemperatureF,Dew PointF,Humidity,Sea Level PressureIn,VisibilityMPH,Wind Direction,Wind SpeedMPH,Gust SpeedMPH,PrecipitationIn,Events,Conditions,WindDirDegrees,DateUTC
12:54 AM,59.0,46.0,62,29.98,10.0,Calm,Calm,-,N/A,,Overcast,0,2013-04-23 05:54:00
1:54 AM,53.1,46.0,77,29.98,10.0,Calm,Calm,-,N/A,,Partly Cloudy,0,2013-04-23 06:54:00
2:54 AM,53.1,46.9,80,29.98,10.0,Calm,Calm,-,N/A,,Mostly Cloudy,0,2013-04-23 07:54:00
3:54 AM,54.0,46.9,77,29.96,10.0,Calm,Calm,-,N/A,,Overcast,0,2013-04-23 08:54:00
4:54 AM,57.0,45.0,64,29.93,10.0,Calm,Calm,-,N/A,,Clear,0,2013-04-23 09:54:00
5:54 AM,53.1,48.0,83,29.93,10.0,Calm,Calm,-,N/A,,Clear,0,2013-04-23 10:54:00
6:54 AM,53.1,48.0,83,29.94,10.0,Calm,Calm,-,N/A,,Overcast,0,2013-04-23 11:54:00
7:18 AM,53.6,50.0,88,29.96,10.0,WNW,4.6,-,0.00,Rain,Light Rain,290,2013-04-23 12:18:00
7:54 AM,54.0,50.0,86,29.99,3.0,Calm,Calm,-,0.04,Rain,Light Rain,0,2013-04-23 12:54:00
8:54 AM,54.0,51.1,90,30.00,3.0,Calm,Calm,-,0.08,Rain,Light Rain,0,2013-04-23 13:54:00
9:54 AM,54.0,52.0,93,30.01,2.0,Calm,Calm,-,0.11,Rain,Rain,0,2013-04-23 14:54:00
10:51 AM,55.4,53.6,94,29.96,6.0,ESE,5.8,-,0.06,,Overcast,120,2013-04-23 15:51:00
10:54 AM,55.9,53.1,90,29.96,6.0,SE,5.8,-,0.06,,Overcast,130,2013-04-23 15:54:00
11:54 AM,57.0,54.0,89,29.93,5.0,East,4.6,-,0.04,,Overcast,80,2013-04-23 16:54:00
12:24 PM,57.2,53.6,88,29.92,5.0,East,3.5,-,N/A,,Overcast,100,2013-04-23 17:24:00
12:54 PM,57.9,54.0,87,29.91,7.0,Calm,Calm,-,N/A,,Overcast,0,2013-04-23 17:54:00
1:54 PM,59.0,55.0,87,29.90,6.0,SSW,5.8,-,0.00,Rain,Light Rain,210,2013-04-23 18:54:00
2:11 PM,57.2,53.6,88,29.90,6.0,SSW,3.5,-,0.00,,Overcast,210,2013-04-23 19:11:00
2:54 PM,57.9,54.0,87,29.90,6.0,West,4.6,-,0.01,Rain,Light Rain,270,2013-04-23 19:54:00
3:54 PM,46.0,42.1,86,29.93,5.0,NW,12.7,21.9,0.02,Rain,Light Rain,310,2013-04-23 20:54:00
4:04 PM,44.6,42.8,93,29.92,10.0,NW,12.7,19.6,0.00,Rain-Thunderstorm,Light Rain,320,2013-04-23 21:04:00
4:19 PM,44.6,41.0,87,29.92,10.0,NNW,10.4,-,0.00,Thunderstorm,Overcast,330,2013-04-23 21:19:00
4:54 PM,43.0,39.9,89,29.92,4.0,NNW,12.7,21.9,0.00,Rain-Thunderstorm,Light Rain,330,2013-04-23 21:54:00
5:05 PM,42.8,39.2,87,29.93,2.0,NNW,12.7,-,0.01,Rain,Light Rain,330,2013-04-23 22:05:00
5:39 PM,42.8,39.2,87,29.93,4.0,NW,15.0,20.7,0.05,Rain,Rain,320,2013-04-23 22:39:00
5:54 PM,42.1,37.9,85,29.94,10.0,NNW,11.5,-,0.05,Rain,Light Rain,330,2013-04-23 22:54:00
6:54 PM,42.1,37.9,85,29.95,7.0,NNW,10.4,-,0.04,Rain,Light Rain,340,2013-04-23 23:54:00
7:54 PM,41.0,37.9,89,29.99,4.0,NW,6.9,-,0.08,Rain,Rain,310,2013-04-24 00:54:00
8:54 PM,41.0,37.9,89,30.00,8.0,NW,13.8,-,0.04,Rain,Light Rain,320,2013-04-24 01:54:00
9:54 PM,41.0,37.9,89,30.02,10.0,NNW,10.4,-,0.03,,Overcast,330,2013-04-24 02:54:00
10:27 PM,41.0,37.4,87,30.02,4.0,NW,5.8,-,0.03,Rain,Rain,320,2013-04-24 03:27:00
10:54 PM,39.9,37.0,89,30.05,9.0,NW,11.5,-,0.04,Rain,Light Rain,310,2013-04-24 03:54:00
10:56 PM,39.2,37.4,93,30.04,10.0,NW,10.4,-,0.00,Rain,Light Rain,310,2013-04-24 03:56:00
11:12 PM,39.2,37.4,93,30.04,8.0,NW,10.4,-,0.00,Rain,Light Rain,320,2013-04-24 04:12:00
11:51 PM,39.2,37.4,93,30.03,10.0,NNW,9.2,-,0.01,,Overcast,340,2013-04-24 04:51:00
11:54 PM,39.9,37.0,89,30.04,10.0,NNW,10.4,-,0.01,,Overcast,330,2013-04-24 04:54:00